N2YJJ-2 Weather Reports


Display with metric or nautical units.
time (UTC)temp
F
wind
direction
speed
MPH
gust
MPH
rain 1hr
in
rain 24hr
in
rain mn
in
humidity
%
barometer
mb
20260505034002 62 173 2.0 9.0 0.00 0.00 0.00 68 1006.5
20260505033002 62 200 1.0 7.0 0.00 0.00 0.00 67 1006.7
20260505032003 62 202 2.0 6.0 0.00 0.00 0.00 66 1007.0
20260505030002 62 203 3.0 9.0 0.00 0.00 0.00 62 1007.3
20260505025002 61 214 3.0 7.0 0.00 0.00 0.00 64 1007.2
20260505024002 60 207 2.0 5.0 0.00 0.00 0.00 65 1007.2
20260505023002 59 192 2.0 5.0 0.00 0.00 0.00 68 1007.1
20260505022002 59 191 2.0 5.0 0.00 0.00 0.00 69 1007.1
20260505021003 58 159 1.0 3.0 0.00 0.00 0.00 71 1007.1
20260505020002 58 157 1.0 2.0 0.00 0.00 0.00 72 1007.1
20260505015002 58 200 0.0 0.0 0.00 0.00 0.00 71 1007.1
20260505014003 59 200 0.0 2.0 0.00 0.00 0.00 71 1007.1
20260505013003 59 200 1.0 2.0 0.00 0.00 0.00 70 1007.2
20260505012002 60 200 1.0 1.0 0.00 0.00 0.00 70 1007.3
20260505011002 61 200 0.0 0.0 0.00 0.00 0.00 69 1007.2
20260505010002 62 200 0.0 2.0 0.00 0.00 0.00 66 1007.1
20260505005002 63 200 1.0 2.0 0.00 0.00 0.00 65 1007.0
20260505003002 65 200 1.0 2.0 0.00 0.00 0.00 60 1007.0
20260505001003 66 171 1.0 3.0 0.00 0.01 0.00 56 1007.1
20260504235002 68 223 1.0 3.0 0.00 0.01 0.00 54 1007.1
20260504234002 69 204 2.0 3.0 0.00 0.01 0.00 52 1007.2
20260504233003 69 258 2.0 7.0 0.00 0.01 0.00 50 1007.2
20260504232003 70 247 2.0 5.0 0.00 0.01 0.00 49 1007.3
20260504231002 70 245 3.0 9.0 0.00 0.01 0.00 46 1007.3
20260504230002 70 219 2.0 7.0 0.00 0.02 0.00 46 1007.3
20260504225002 71 236 2.0 10.0 0.00 0.02 0.00 46 1007.3
20260504224002 71 242 3.0 10.0 0.00 0.02 0.00 43 1007.4
20260504223003 72 232 3.0 10.0 0.00 0.03 0.00 41 1007.3
20260504222002 72 241 3.0 12.0 0.00 0.03 0.00 41 1007.4
20260504221004 72 300 2.0 12.0 0.00 0.03 0.00 47 1007.5
20260504215003 73 229 6.0 14.0 0.00 0.03 0.00 40 1007.6
20260504214003 73 250 3.0 14.0 0.00 0.03 0.00 42 1007.6
20260504213002 74 260 7.0 20.0 0.00 0.03 0.00 41 1007.5
20260504212003 74 230 3.0 14.0 0.00 0.03 0.00 43 1007.5
20260504211002 74 240 5.0 13.0 0.00 0.03 0.00 42 1007.6
20260504210004 74 237 6.0 14.0 0.00 0.03 0.00 43 1007.5
20260504205003 74 230 5.0 10.0 0.00 0.03 0.00 43 1007.6
20260504204003 74 243 8.0 17.0 0.00 0.03 0.00 44 1007.6
20260504203003 74 268 5.0 12.0 0.00 0.03 0.00 45 1007.6
20260504202003 74 242 6.0 17.0 0.00 0.03 0.00 42 1007.7
20260504201002 74 253 6.0 13.0 0.00 0.03 0.00 44 1007.8
20260504200003 74 223 3.0 13.0 0.00 0.03 0.00 48 1008.0
20260504195002 73 236 5.0 13.0 0.00 0.03 0.00 47 1008.3
20260504194004 73 228 7.0 13.0 0.00 0.03 0.00 46 1008.6
20260504193003 73 216 6.0 15.0 0.00 0.03 0.00 46 1008.7
20260504192003 73 242 6.0 13.0 0.00 0.03 0.00 48 1008.7
20260504191003 73 245 5.0 12.0 0.00 0.03 0.00 50 1008.9
20260504190003 72 230 5.0 15.0 0.00 0.03 0.00 51 1009.0
20260504185003 72 207 5.0 15.0 0.00 0.03 0.00 52 1009.2
20260504184003 71 225 3.0 15.0 0.00 0.03 0.00 53 1009.2
20260504183003 71 203 5.0 13.0 0.00 0.03 0.00 54 1009.3
20260504182003 71 249 6.0 17.0 0.00 0.03 0.00 52 1009.5
20260504180003 70 257 5.0 13.0 0.00 0.03 0.00 57 1009.6
20260504175003 69 214 7.0 13.0 0.00 0.03 0.00 53 1009.8
20260504174003 69 233 7.0 15.0 0.00 0.03 0.00 54 1009.9
20260504173003 69 237 6.0 20.0 0.00 0.03 0.00 54 1010.0
20260504172003 68 227 5.0 15.0 0.00 0.03 0.00 55 1010.1
20260504171003 68 209 7.0 18.0 0.00 0.03 0.00 54 1010.4
20260504141003 63 245 6.0 12.0 0.00 0.03 0.00 57 1010.9
20260504082002 51 245 3.0 12.0 0.00 0.03 0.00 70 1012.2
20260504081002 51 181 3.0 10.0 0.00 0.03 0.00 72 1012.4
20260504050002 55 224 4.0 10.0 0.00 0.03 0.00 59 1013.7
20260504045003 56 224 5.0 12.0 0.00 0.03 0.00 58 1013.7
20260504043002 56 231 2.0 16.0 0.00 0.03 0.00 57 1013.8
20260504041002 56 223 5.0 14.0 0.00 0.03 0.00 57 1013.9
20260504040002 56 247 4.0 13.0 0.00 0.03 0.00 58 1013.8